contact:dominique.lefevre@mio.osupytheas.fr, maurice.libes@osupytheas.fr, didier.mallarino@osupytheas.fr
Project:EMSO http://www.emso-fr.org/EMSO-France
Depth: 2436.0 m
Title:EMSO Ligure Ouest : Data MII capteur MICROCAT
DateTime_Computer,Latitude,Longitude,Temperature,Conductivity,Pressure,DateTime_Instrument
DateTime_Computer,Latitude,Longitude,degC,S m-1,dbar,DateTime_Instrument
2021-10-27T00:00:51Z,42.805,6.029,13.3001,4.60057,2470.413,2021-10-27T02:02:16Z
2021-10-27T00:03:54Z,42.805,6.029,13.3000,4.60026,2470.45,2021-10-27T02:05:19Z
2021-10-27T00:06:58Z,42.805,6.029,13.3001,4.60031,2470.427,2021-10-27T02:08:22Z
2021-10-27T00:10:01Z,42.805,6.029,13.3006,4.60050,2470.413,2021-10-27T02:11:25Z
2021-10-27T00:13:04Z,42.805,6.029,13.3011,4.60048,2470.437,2021-10-27T02:14:28Z
2021-10-27T00:16:07Z,42.805,6.029,13.3007,4.60054,2470.427,2021-10-27T02:17:31Z
2021-10-27T00:19:10Z,42.805,6.029,13.3009,4.60029,2470.45,2021-10-27T02:20:35Z
2021-10-27T00:22:13Z,42.805,6.029,13.2998,4.60028,2470.413,2021-10-27T02:23:38Z
2021-10-27T00:25:16Z,42.805,6.029,13.3002,4.60033,2470.366,2021-10-27T02:26:41Z
2021-10-27T00:28:19Z,42.805,6.029,13.3004,4.60046,2470.39,2021-10-27T02:29:44Z
2021-10-27T00:31:23Z,42.805,6.029,13.3008,4.60049,2470.404,2021-10-27T02:32:47Z
2021-10-27T00:34:26Z,42.805,6.029,13.3015,4.60050,2470.413,2021-10-27T02:35:50Z
2021-10-27T00:37:29Z,42.805,6.029,13.3014,4.60046,2470.427,2021-10-27T02:38:53Z
2021-10-27T00:40:32Z,42.805,6.029,13.3000,4.60045,2470.427,2021-10-27T02:41:56Z
2021-10-27T00:43:35Z,42.805,6.029,13.3024,4.60050,2470.404,2021-10-27T02:44:59Z
2021-10-27T00:46:38Z,42.805,6.029,13.3004,4.60046,2470.413,2021-10-27T02:48:03Z
2021-10-27T00:49:41Z,42.805,6.029,13.3035,4.60042,2470.39,2021-10-27T02:51:06Z
2021-10-27T00:52:44Z,42.805,6.029,13.3014,4.60078,2470.404,2021-10-27T02:54:09Z
2021-10-27T00:55:48Z,42.805,6.029,13.3015,4.60091,2470.404,2021-10-27T02:57:12Z
2021-10-27T00:58:51Z,42.805,6.029,13.3006,4.60059,2470.39,2021-10-27T03:00:15Z
2021-10-27T01:01:54Z,42.805,6.029,13.3000,4.60044,2470.427,2021-10-27T03:03:18Z
2021-10-27T01:04:57Z,42.805,6.029,13.3016,4.60056,2470.413,2021-10-27T03:06:21Z
2021-10-27T01:08:00Z,42.805,6.029,13.3011,4.60059,2470.404,2021-10-27T03:09:24Z
2021-10-27T01:11:03Z,42.805,6.029,13.3013,4.60064,2470.404,2021-10-27T03:12:28Z
2021-10-27T01:14:06Z,42.805,6.029,13.3012,4.60052,2470.39,2021-10-27T03:15:31Z
2021-10-27T01:17:09Z,42.805,6.029,13.3004,4.60047,2470.39,2021-10-27T03:18:34Z
2021-10-27T01:20:13Z,42.805,6.029,13.3014,4.60058,2470.413,2021-10-27T03:21:37Z
2021-10-27T01:23:16Z,42.805,6.029,13.3004,4.60044,2470.366,2021-10-27T03:24:40Z
2021-10-27T01:26:19Z,42.805,6.029,13.3001,4.60041,2470.404,2021-10-27T03:27:43Z
2021-10-27T01:29:22Z,42.805,6.029,13.3009,4.60051,2470.343,2021-10-27T03:30:46Z
2021-10-27T01:32:25Z,42.805,6.029,13.3008,4.60059,2470.404,2021-10-27T03:33:49Z
2021-10-27T01:35:28Z,42.805,6.029,13.3000,4.60046,2470.413,2021-10-27T03:36:53Z
2021-10-27T01:38:31Z,42.805,6.029,13.3005,4.60043,2470.366,2021-10-27T03:39:56Z
2021-10-27T01:41:34Z,42.805,6.029,13.3002,4.60036,2470.38,2021-10-27T03:42:59Z
2021-10-27T01:44:38Z,42.805,6.029,13.3004,4.60044,2470.404,2021-10-27T03:46:02Z
2021-10-27T01:47:41Z,42.805,6.029,13.3011,4.60052,2470.366,2021-10-27T03:49:05Z
2021-10-27T01:50:44Z,42.805,6.029,13.3000,4.60053,2470.39,2021-10-27T03:52:08Z
2021-10-27T01:53:47Z,42.805,6.029,13.3000,4.60064,2470.366,2021-10-27T03:55:11Z
2021-10-27T01:56:50Z,42.805,6.029,13.3000,4.60046,2470.404,2021-10-27T03:58:14Z
2021-10-27T01:59:53Z,42.805,6.029,13.2998,4.60049,2470.404,2021-10-27T04:01:18Z
2021-10-27T02:02:56Z,42.805,6.029,13.3004,4.60058,2470.39,2021-10-27T04:04:21Z
2021-10-27T02:05:59Z,42.805,6.029,13.3017,4.60058,2470.39,2021-10-27T04:07:24Z
2021-10-27T02:09:03Z,42.805,6.029,13.3009,4.60053,2470.39,2021-10-27T04:10:27Z
2021-10-27T02:12:06Z,42.805,6.029,13.3006,4.60040,2470.404,2021-10-27T04:13:30Z
2021-10-27T02:15:09Z,42.805,6.029,13.3004,4.60055,2470.404,2021-10-27T04:16:33Z
2021-10-27T02:18:12Z,42.805,6.029,13.2996,4.60049,2470.38,2021-10-27T04:19:36Z
2021-10-27T02:21:15Z,42.805,6.029,13.3004,4.60058,2470.39,2021-10-27T04:22:39Z
2021-10-27T02:24:18Z,42.805,6.029,13.2998,4.60062,2470.38,2021-10-27T04:25:43Z
2021-10-27T02:27:21Z,42.805,6.029,13.3012,4.60052,2470.38,2021-10-27T04:28:46Z
2021-10-27T02:30:24Z,42.805,6.029,13.3006,4.60074,2470.366,2021-10-27T04:31:49Z
2021-10-27T02:33:28Z,42.805,6.029,13.3004,4.60072,2470.404,2021-10-27T04:34:52Z
2021-10-27T02:36:31Z,42.805,6.029,13.2996,4.60046,2470.38,2021-10-27T04:37:55Z
2021-10-27T02:39:34Z,42.805,6.029,13.2996,4.60029,2470.404,2021-10-27T04:40:58Z
2021-10-27T02:42:37Z,42.805,6.029,13.3008,4.60033,2470.366,2021-10-27T04:44:01Z
2021-10-27T02:45:40Z,42.805,6.029,13.3008,4.60039,2470.404,2021-10-27T04:47:04Z
2021-10-27T02:48:43Z,42.805,6.029,13.3005,4.60052,2470.38,2021-10-27T04:50:08Z
2021-10-27T02:51:46Z,42.805,6.029,13.3009,4.60049,2470.39,2021-10-27T04:53:11Z
2021-10-27T02:54:49Z,42.805,6.029,13.3008,4.60044,2470.39,2021-10-27T04:56:14Z
2021-10-27T02:57:52Z,42.805,6.029,13.3007,4.60067,2470.404,2021-10-27T04:59:17Z
2021-10-27T03:00:56Z,42.805,6.029,13.3001,4.60042,2470.39,2021-10-27T05:02:20Z
2021-10-27T03:03:59Z,42.805,6.029,13.3006,4.60040,2470.39,2021-10-27T05:05:23Z
2021-10-27T03:07:02Z,42.805,6.029,13.3009,4.60040,2470.366,2021-10-27T05:08:26Z
2021-10-27T03:10:05Z,42.805,6.029,13.2998,4.60050,2470.404,2021-10-27T05:11:29Z
2021-10-27T03:13:08Z,42.805,6.029,13.3001,4.60049,2470.357,2021-10-27T05:14:33Z
2021-10-27T03:16:11Z,42.805,6.029,13.3005,4.60067,2470.404,2021-10-27T05:17:36Z
2021-10-27T03:19:14Z,42.805,6.029,13.3013,4.60080,2470.366,2021-10-27T05:20:39Z
2021-10-27T03:22:17Z,42.805,6.029,13.3015,4.60057,2470.38,2021-10-27T05:23:42Z
2021-10-27T03:25:21Z,42.805,6.029,13.3016,4.60076,2470.39,2021-10-27T05:26:45Z
2021-10-27T03:28:24Z,42.805,6.029,13.2996,4.60053,2470.413,2021-10-27T05:29:48Z
2021-10-27T03:31:27Z,42.805,6.029,13.3006,4.60077,2470.38,2021-10-27T05:32:51Z
2021-10-27T03:34:30Z,42.805,6.029,13.3004,4.60074,2470.366,2021-10-27T05:35:54Z
2021-10-27T03:37:33Z,42.805,6.029,13.3016,4.60078,2470.366,2021-10-27T05:38:58Z
2021-10-27T03:40:36Z,42.805,6.029,13.3009,4.60070,2470.366,2021-10-27T05:42:01Z
2021-10-27T03:43:39Z,42.805,6.029,13.3006,4.60065,2470.38,2021-10-27T05:45:04Z
2021-10-27T03:46:42Z,42.805,6.029,13.3011,4.60070,2470.38,2021-10-27T05:48:07Z
2021-10-27T03:49:46Z,42.805,6.029,13.3014,4.60069,2470.413,2021-10-27T05:51:10Z
2021-10-27T03:52:49Z,42.805,6.029,13.3014,4.60072,2470.39,2021-10-27T05:54:13Z
2021-10-27T03:55:52Z,42.805,6.029,13.3003,4.60038,2470.38,2021-10-27T05:57:16Z
2021-10-27T03:58:55Z,42.805,6.029,13.2996,4.60055,2470.366,2021-10-27T06:00:19Z
2021-10-27T04:01:58Z,42.805,6.029,13.2999,4.60051,2470.334,2021-10-27T06:03:23Z
2021-10-27T04:05:01Z,42.805,6.029,13.3009,4.60069,2470.366,2021-10-27T06:06:26Z
2021-10-27T04:08:04Z,42.805,6.029,13.3002,4.60057,2470.343,2021-10-27T06:09:29Z
2021-10-27T04:11:07Z,42.805,6.029,13.3007,4.60053,2470.39,2021-10-27T06:12:32Z
2021-10-27T04:14:11Z,42.805,6.029,13.3005,4.60049,2470.39,2021-10-27T06:15:35Z
2021-10-27T04:17:14Z,42.805,6.029,13.2996,4.60030,2470.366,2021-10-27T06:18:38Z
2021-10-27T04:20:17Z,42.805,6.029,13.2996,4.60051,2470.38,2021-10-27T06:21:41Z
2021-10-27T04:23:20Z,42.805,6.029,13.3000,4.60039,2470.366,2021-10-27T06:24:44Z
2021-10-27T04:26:23Z,42.805,6.029,13.3002,4.60043,2470.357,2021-10-27T06:27:48Z
2021-10-27T04:29:26Z,42.805,6.029,13.2997,4.60049,2470.39,2021-10-27T06:30:51Z
2021-10-27T04:32:29Z,42.805,6.029,13.3003,4.60044,2470.46,2021-10-27T06:33:54Z
2021-10-27T04:35:32Z,42.805,6.029,13.3004,4.60047,2470.413,2021-10-27T06:36:57Z
2021-10-27T04:38:36Z,42.805,6.029,13.3005,4.60039,2470.39,2021-10-27T06:40:00Z
2021-10-27T04:41:39Z,42.805,6.029,13.3000,4.60049,2470.39,2021-10-27T06:43:03Z
2021-10-27T04:44:42Z,42.805,6.029,13.3003,4.60078,2470.343,2021-10-27T06:46:06Z
2021-10-27T04:47:45Z,42.805,6.029,13.3008,4.60076,2470.413,2021-10-27T06:49:09Z
2021-10-27T04:50:48Z,42.805,6.029,13.3011,4.60067,2470.38,2021-10-27T06:52:13Z
2021-10-27T04:53:51Z,42.805,6.029,13.3001,4.60058,2470.38,2021-10-27T06:55:16Z
2021-10-27T04:56:54Z,42.805,6.029,13.3009,4.60057,2470.343,2021-10-27T06:58:19Z
2021-10-27T04:59:57Z,42.805,6.029,13.3003,4.60044,2470.366,2021-10-27T07:01:22Z
2021-10-27T05:03:01Z,42.805,6.029,13.3007,4.60067,2470.38,2021-10-27T07:04:25Z
2021-10-27T05:06:04Z,42.805,6.029,13.3019,4.60058,2470.38,2021-10-27T07:07:28Z
2021-10-27T05:09:07Z,42.805,6.029,13.2998,4.60052,2470.38,2021-10-27T07:10:31Z
2021-10-27T05:12:10Z,42.805,6.029,13.2998,4.60039,2470.38,2021-10-27T07:13:34Z
2021-10-27T05:15:13Z,42.805,6.029,13.3004,4.60039,2470.38,2021-10-27T07:16:38Z
2021-10-27T05:18:16Z,42.805,6.029,13.3006,4.60049,2470.366,2021-10-27T07:19:41Z
2021-10-27T05:21:19Z,42.805,6.029,13.3008,4.60059,2470.38,2021-10-27T07:22:44Z
2021-10-27T05:24:22Z,42.805,6.029,13.2999,4.60048,2470.343,2021-10-27T07:25:47Z
2021-10-27T05:27:26Z,42.805,6.029,13.3005,4.60045,2470.357,2021-10-27T07:28:50Z
2021-10-27T05:30:29Z,42.805,6.029,13.2999,4.60036,2470.357,2021-10-27T07:31:53Z
2021-10-27T05:33:32Z,42.805,6.029,13.2999,4.60039,2470.32,2021-10-27T07:34:56Z
2021-10-27T05:36:35Z,42.805,6.029,13.3011,4.60050,2470.343,2021-10-27T07:37:59Z
2021-10-27T05:39:38Z,42.805,6.029,13.3011,4.60059,2470.357,2021-10-27T07:41:03Z
2021-10-27T05:42:41Z,42.805,6.029,13.3004,4.60046,2470.343,2021-10-27T07:44:06Z
2021-10-27T05:45:44Z,42.805,6.029,13.3015,4.60062,2470.32,2021-10-27T07:47:09Z
2021-10-27T05:48:47Z,42.805,6.029,13.3004,4.60061,2470.32,2021-10-27T07:50:12Z
2021-10-27T05:51:51Z,42.805,6.029,13.3005,4.60045,2470.357,2021-10-27T07:53:15Z
2021-10-27T05:54:54Z,42.805,6.029,13.3011,4.60049,2470.31,2021-10-27T07:56:18Z
2021-10-27T05:57:57Z,42.805,6.029,13.3014,4.60044,2470.366,2021-10-27T07:59:21Z
2021-10-27T06:01:00Z,42.805,6.029,13.3002,4.60038,2470.297,2021-10-27T08:02:24Z
2021-10-27T06:04:03Z,42.805,6.029,13.3002,4.60034,2470.334,2021-10-27T08:05:28Z
2021-10-27T06:07:06Z,42.805,6.029,13.3017,4.60062,2470.297,2021-10-27T08:08:31Z
2021-10-27T06:10:09Z,42.805,6.029,13.3006,4.60049,2470.357,2021-10-27T08:11:34Z
2021-10-27T06:13:12Z,42.805,6.029,13.2998,4.60049,2470.357,2021-10-27T08:14:37Z
2021-10-27T06:16:16Z,42.805,6.029,13.3005,4.60034,2470.32,2021-10-27T08:17:40Z
2021-10-27T06:19:19Z,42.805,6.029,13.3009,4.60032,2470.343,2021-10-27T08:20:43Z
2021-10-27T06:22:22Z,42.805,6.029,13.3005,4.60036,2470.357,2021-10-27T08:23:46Z
2021-10-27T06:25:25Z,42.805,6.029,13.3011,4.60039,2470.357,2021-10-27T08:26:49Z
2021-10-27T06:28:28Z,42.805,6.029,13.3000,4.60033,2470.334,2021-10-27T08:29:52Z
2021-10-27T06:31:31Z,42.805,6.029,13.3000,4.60049,2470.32,2021-10-27T08:32:56Z
2021-10-27T06:34:34Z,42.805,6.029,13.3008,4.60046,2470.366,2021-10-27T08:35:59Z
2021-10-27T06:37:37Z,42.805,6.029,13.3001,4.60038,2470.357,2021-10-27T08:39:02Z
2021-10-27T06:40:41Z,42.805,6.029,13.3006,4.60033,2470.334,2021-10-27T08:42:05Z
2021-10-27T06:43:44Z,42.805,6.029,13.3000,4.60029,2470.357,2021-10-27T08:45:08Z
2021-10-27T06:46:47Z,42.805,6.029,13.2999,4.60044,2470.32,2021-10-27T08:48:11Z
2021-10-27T06:49:50Z,42.805,6.029,13.3006,4.60046,2470.38,2021-10-27T08:51:14Z
2021-10-27T06:52:53Z,42.805,6.029,13.3000,4.60037,2470.38,2021-10-27T08:54:17Z
2021-10-27T06:55:56Z,42.805,6.029,13.3002,4.60040,2470.343,2021-10-27T08:57:21Z
2021-10-27T06:58:59Z,42.805,6.029,13.3004,4.60038,2470.366,2021-10-27T09:00:24Z
2021-10-27T07:02:02Z,42.805,6.029,13.3003,4.60036,2470.366,2021-10-27T09:03:27Z
2021-10-27T07:05:05Z,42.805,6.029,13.3000,4.60032,2470.357,2021-10-27T09:06:30Z
2021-10-27T07:08:09Z,42.805,6.029,13.2998,4.60025,2470.404,2021-10-27T09:09:33Z
2021-10-27T07:11:12Z,42.805,6.029,13.3003,4.60027,2470.366,2021-10-27T09:12:36Z
2021-10-27T07:14:15Z,42.805,6.029,13.2996,4.60028,2470.366,2021-10-27T09:15:39Z
2021-10-27T07:17:18Z,42.805,6.029,13.3003,4.60033,2470.343,2021-10-27T09:18:42Z
2021-10-27T07:20:21Z,42.805,6.029,13.3007,4.60038,2470.404,2021-10-27T09:21:46Z
2021-10-27T07:23:24Z,42.805,6.029,13.3002,4.60034,2470.38,2021-10-27T09:24:49Z
2021-10-27T07:26:27Z,42.805,6.029,13.2999,4.60041,2470.39,2021-10-27T09:27:52Z
2021-10-27T07:29:30Z,42.805,6.029,13.3002,4.60031,2470.39,2021-10-27T09:30:55Z
2021-10-27T07:32:34Z,42.805,6.029,13.2997,4.60030,2470.404,2021-10-27T09:33:58Z
2021-10-27T07:35:37Z,42.805,6.029,13.2998,4.60030,2470.39,2021-10-27T09:37:01Z
2021-10-27T07:38:40Z,42.805,6.029,13.3000,4.60028,2470.38,2021-10-27T09:40:04Z
2021-10-27T07:41:43Z,42.805,6.029,13.2999,4.60031,2470.413,2021-10-27T09:43:07Z
2021-10-27T07:44:46Z,42.805,6.029,13.3000,4.60031,2470.427,2021-10-27T09:46:11Z
2021-10-27T07:47:49Z,42.805,6.029,13.3004,4.60031,2470.404,2021-10-27T09:49:14Z
2021-10-27T07:50:52Z,42.805,6.029,13.3000,4.60027,2470.39,2021-10-27T09:52:17Z
2021-10-27T07:53:55Z,42.805,6.029,13.2996,4.60025,2470.413,2021-10-27T09:55:20Z
2021-10-27T07:56:59Z,42.805,6.029,13.2998,4.60029,2470.427,2021-10-27T09:58:23Z
2021-10-27T08:00:02Z,42.805,6.029,13.3003,4.60035,2470.427,2021-10-27T10:01:26Z
2021-10-27T08:03:05Z,42.805,6.029,13.2997,4.60034,2470.366,2021-10-27T10:04:29Z
2021-10-27T08:06:08Z,42.805,6.029,13.3004,4.60033,2470.427,2021-10-27T10:07:32Z
2021-10-27T08:09:11Z,42.805,6.029,13.2996,4.60034,2470.45,2021-10-27T10:10:36Z
2021-10-27T08:12:14Z,42.805,6.029,13.3002,4.60039,2470.427,2021-10-27T10:13:39Z
2021-10-27T08:15:17Z,42.805,6.029,13.2998,4.60029,2470.437,2021-10-27T10:16:42Z
2021-10-27T08:18:21Z,42.805,6.029,13.3005,4.60032,2470.427,2021-10-27T10:19:45Z
2021-10-27T08:21:24Z,42.805,6.029,13.3010,4.60033,2470.45,2021-10-27T10:22:48Z
2021-10-27T08:24:27Z,42.805,6.029,13.3000,4.60031,2470.404,2021-10-27T10:25:51Z
2021-10-27T08:27:30Z,42.805,6.029,13.2998,4.60038,2470.427,2021-10-27T10:28:54Z
2021-10-27T08:30:33Z,42.805,6.029,13.2996,4.60028,2470.45,2021-10-27T10:31:57Z
2021-10-27T08:33:36Z,42.805,6.029,13.2991,4.60026,2470.46,2021-10-27T10:35:01Z
2021-10-27T08:36:39Z,42.805,6.029,13.2995,4.60033,2470.427,2021-10-27T10:38:04Z
2021-10-27T08:39:42Z,42.805,6.029,13.3002,4.60031,2470.497,2021-10-27T10:41:07Z
2021-10-27T08:42:46Z,42.805,6.029,13.2998,4.60025,2470.437,2021-10-27T10:44:10Z
2021-10-27T08:45:49Z,42.805,6.029,13.3003,4.60042,2470.45,2021-10-27T10:47:13Z
2021-10-27T08:48:52Z,42.805,6.029,13.2998,4.60031,2470.437,2021-10-27T10:50:16Z
2021-10-27T08:51:55Z,42.805,6.029,13.2998,4.60021,2470.45,2021-10-27T10:53:19Z
2021-10-27T08:54:58Z,42.805,6.029,13.3002,4.60031,2470.437,2021-10-27T10:56:23Z
2021-10-27T08:58:01Z,42.805,6.029,13.2995,4.60027,2470.474,2021-10-27T10:59:26Z
2021-10-27T09:01:04Z,42.805,6.029,13.2996,4.60033,2470.46,2021-10-27T11:02:29Z
2021-10-27T09:04:07Z,42.805,6.029,13.3000,4.60053,2470.437,2021-10-27T11:05:32Z
2021-10-27T09:07:11Z,42.805,6.029,13.2996,4.60024,2470.46,2021-10-27T11:08:35Z
2021-10-27T09:10:14Z,42.805,6.029,13.2994,4.60046,2470.483,2021-10-27T11:11:38Z
2021-10-27T09:13:17Z,42.805,6.029,13.2999,4.60029,2470.46,2021-10-27T11:14:41Z
2021-10-27T09:16:20Z,42.805,6.029,13.3006,4.60040,2470.437,2021-10-27T11:17:44Z
2021-10-27T09:19:23Z,42.805,6.029,13.2999,4.60024,2470.46,2021-10-27T11:20:48Z
2021-10-27T09:22:26Z,42.805,6.029,13.2999,4.60019,2470.46,2021-10-27T11:23:51Z
2021-10-27T09:25:29Z,42.805,6.029,13.2998,4.60022,2470.46,2021-10-27T11:26:54Z
2021-10-27T09:28:32Z,42.805,6.029,13.2998,4.60028,2470.474,2021-10-27T11:29:57Z
2021-10-27T09:31:36Z,42.805,6.029,13.2998,4.60029,2470.45,2021-10-27T11:33:00Z
2021-10-27T09:34:39Z,42.805,6.029,13.2995,4.60026,2470.474,2021-10-27T11:36:03Z
2021-10-27T09:37:42Z,42.805,6.029,13.2995,4.60033,2470.45,2021-10-27T11:39:06Z
2021-10-27T09:40:45Z,42.805,6.029,13.2992,4.60026,2470.46,2021-10-27T11:42:09Z
2021-10-27T09:43:48Z,42.805,6.029,13.2998,4.60029,2470.483,2021-10-27T11:45:13Z
2021-10-27T09:46:51Z,42.805,6.029,13.3007,4.60030,2470.483,2021-10-27T11:48:16Z
2021-10-27T09:49:54Z,42.805,6.029,13.2996,4.60022,2470.497,2021-10-27T11:51:19Z
2021-10-27T09:52:57Z,42.805,6.029,13.3003,4.60038,2470.52,2021-10-27T11:54:22Z
2021-10-27T09:56:01Z,42.805,6.029,13.3007,4.60031,2470.52,2021-10-27T11:57:25Z
2021-10-27T09:59:04Z,42.805,6.029,13.2991,4.60024,2470.497,2021-10-27T12:00:28Z
2021-10-27T10:02:07Z,42.805,6.029,13.2998,4.60026,2470.507,2021-10-27T12:03:31Z
2021-10-27T10:05:10Z,42.805,6.029,13.2995,4.60020,2470.483,2021-10-27T12:06:34Z
2021-10-27T10:08:13Z,42.805,6.029,13.2996,4.60035,2470.483,2021-10-27T12:09:38Z
2021-10-27T10:11:16Z,42.805,6.029,13.3002,4.60028,2470.507,2021-10-27T12:12:41Z
2021-10-27T10:14:19Z,42.805,6.029,13.2999,4.60033,2470.483,2021-10-27T12:15:44Z
2021-10-27T10:17:22Z,42.805,6.029,13.3000,4.60023,2470.497,2021-10-27T12:18:47Z
2021-10-27T10:20:26Z,42.805,6.029,13.2997,4.60019,2470.497,2021-10-27T12:21:50Z
2021-10-27T10:23:29Z,42.805,6.029,13.2995,4.60017,2470.483,2021-10-27T12:24:53Z
2021-10-27T10:26:32Z,42.805,6.029,13.2996,4.60031,2470.52,2021-10-27T12:27:56Z
2021-10-27T10:29:35Z,42.805,6.029,13.2995,4.60026,2470.52,2021-10-27T12:30:59Z
2021-10-27T10:32:38Z,42.805,6.029,13.2998,4.60049,2470.483,2021-10-27T12:34:03Z
2021-10-27T10:35:41Z,42.805,6.029,13.3002,4.60021,2470.483,2021-10-27T12:37:06Z
2021-10-27T10:38:44Z,42.805,6.029,13.2996,4.60021,2470.507,2021-10-27T12:40:09Z
2021-10-27T10:41:47Z,42.805,6.029,13.2993,4.60021,2470.52,2021-10-27T12:43:12Z
2021-10-27T10:44:51Z,42.805,6.029,13.3000,4.60023,2470.52,2021-10-27T12:46:15Z
2021-10-27T10:47:54Z,42.805,6.029,13.2998,4.60023,2470.507,2021-10-27T12:49:18Z
2021-10-27T10:50:57Z,42.805,6.029,13.2995,4.60017,2470.497,2021-10-27T12:52:21Z
2021-10-27T10:54:00Z,42.805,6.029,13.2993,4.60019,2470.46,2021-10-27T12:55:24Z
2021-10-27T10:57:03Z,42.805,6.029,13.2996,4.60031,2470.483,2021-10-27T12:58:28Z
2021-10-27T11:00:06Z,42.805,6.029,13.3005,4.60029,2470.507,2021-10-27T13:01:31Z
2021-10-27T11:03:09Z,42.805,6.029,13.2998,4.60023,2470.52,2021-10-27T13:04:34Z
2021-10-27T11:06:12Z,42.805,6.029,13.2996,4.60025,2470.497,2021-10-27T13:07:37Z
2021-10-27T11:09:16Z,42.805,6.029,13.2994,4.60023,2470.507,2021-10-27T13:10:40Z
2021-10-27T11:12:19Z,42.805,6.029,13.2998,4.60029,2470.507,2021-10-27T13:13:43Z
2021-10-27T11:15:22Z,42.805,6.029,13.2998,4.60024,2470.507,2021-10-27T13:16:46Z
2021-10-27T11:18:25Z,42.805,6.029,13.2997,4.60026,2470.474,2021-10-27T13:19:49Z
2021-10-27T11:21:28Z,42.805,6.029,13.2994,4.60023,2470.483,2021-10-27T13:22:53Z
2021-10-27T11:24:31Z,42.805,6.029,13.3000,4.60022,2470.483,2021-10-27T13:25:56Z
2021-10-27T11:27:34Z,42.805,6.029,13.2999,4.60024,2470.46,2021-10-27T13:28:59Z
2021-10-27T11:30:38Z,42.805,6.029,13.3004,4.60033,2470.483,2021-10-27T13:32:02Z
2021-10-27T11:33:41Z,42.805,6.029,13.2995,4.60024,2470.52,2021-10-27T13:35:05Z
2021-10-27T11:36:44Z,42.805,6.029,13.3001,4.60024,2470.511,2021-10-27T13:38:08Z
2021-10-27T11:39:47Z,42.805,6.029,13.3000,4.60022,2470.474,2021-10-27T13:41:11Z
2021-10-27T11:42:50Z,42.805,6.029,13.2996,4.60023,2470.497,2021-10-27T13:44:14Z
2021-10-27T11:45:53Z,42.805,6.029,13.2998,4.60028,2470.483,2021-10-27T13:47:18Z
2021-10-27T11:48:56Z,42.805,6.029,13.3007,4.60031,2470.47,2021-10-27T13:50:21Z
2021-10-27T11:51:59Z,42.805,6.029,13.2996,4.60021,2470.483,2021-10-27T13:53:24Z
2021-10-27T11:55:03Z,42.805,6.029,13.2998,4.60021,2470.474,2021-10-27T13:56:27Z
2021-10-27T11:58:06Z,42.805,6.029,13.2993,4.60023,2470.483,2021-10-27T13:59:30Z
2021-10-27T12:01:09Z,42.805,6.029,13.2996,4.60021,2470.497,2021-10-27T14:02:33Z
2021-10-27T12:04:12Z,42.805,6.029,13.2998,4.60033,2470.483,2021-10-27T14:05:36Z
2021-10-27T12:07:15Z,42.805,6.029,13.2999,4.60023,2470.483,2021-10-27T14:08:40Z
2021-10-27T12:10:18Z,42.805,6.029,13.2998,4.60034,2470.474,2021-10-27T14:11:43Z
2021-10-27T12:13:21Z,42.805,6.029,13.2994,4.60024,2470.483,2021-10-27T14:14:46Z
2021-10-27T12:16:24Z,42.805,6.029,13.2995,4.60034,2470.52,2021-10-27T14:17:49Z
2021-10-27T12:19:28Z,42.805,6.029,13.2992,4.60018,2470.507,2021-10-27T14:20:52Z
2021-10-27T12:22:31Z,42.805,6.029,13.2996,4.60018,2470.483,2021-10-27T14:23:55Z
2021-10-27T12:25:34Z,42.805,6.029,13.2995,4.60032,2470.483,2021-10-27T14:26:58Z
2021-10-27T12:28:37Z,42.805,6.029,13.2997,4.60021,2470.46,2021-10-27T14:30:01Z
2021-10-27T12:31:40Z,42.805,6.029,13.3003,4.60034,2470.483,2021-10-27T14:33:05Z
2021-10-27T12:34:43Z,42.805,6.029,13.2996,4.60023,2470.46,2021-10-27T14:36:08Z
2021-10-27T12:37:46Z,42.805,6.029,13.3003,4.60029,2470.497,2021-10-27T14:39:11Z
2021-10-27T12:40:49Z,42.805,6.029,13.2994,4.60023,2470.483,2021-10-27T14:42:14Z
2021-10-27T12:43:53Z,42.805,6.029,13.2998,4.60024,2470.483,2021-10-27T14:45:17Z
2021-10-27T12:46:56Z,42.805,6.029,13.2996,4.60039,2470.497,2021-10-27T14:48:20Z
2021-10-27T12:49:59Z,42.805,6.029,13.2994,4.60017,2470.46,2021-10-27T14:51:23Z
2021-10-27T12:53:02Z,42.805,6.029,13.2993,4.60020,2470.497,2021-10-27T14:54:26Z
2021-10-27T12:56:05Z,42.805,6.029,13.2990,4.60015,2470.507,2021-10-27T14:57:30Z
2021-10-27T12:59:08Z,42.805,6.029,13.2993,4.60020,2470.497,2021-10-27T15:00:33Z
2021-10-27T13:02:11Z,42.805,6.029,13.2997,4.60032,2470.474,2021-10-27T15:03:36Z
2021-10-27T13:05:14Z,42.805,6.029,13.3000,4.60050,2470.474,2021-10-27T15:06:39Z
2021-10-27T13:08:18Z,42.805,6.029,13.2995,4.60044,2470.46,2021-10-27T15:09:42Z
2021-10-27T13:11:21Z,42.805,6.029,13.2997,4.60028,2470.497,2021-10-27T15:12:45Z
2021-10-27T13:14:24Z,42.805,6.029,13.3001,4.60023,2470.483,2021-10-27T15:15:48Z
2021-10-27T13:17:27Z,42.805,6.029,13.3000,4.60029,2470.483,2021-10-27T15:18:51Z
2021-10-27T13:20:30Z,42.805,6.029,13.2998,4.60036,2470.483,2021-10-27T15:21:55Z
2021-10-27T13:23:33Z,42.805,6.029,13.2996,4.60031,2470.53,2021-10-27T15:24:58Z
2021-10-27T13:26:36Z,42.805,6.029,13.3005,4.60041,2470.497,2021-10-27T15:28:01Z
2021-10-27T13:29:39Z,42.805,6.029,13.2997,4.60020,2470.483,2021-10-27T15:31:04Z
2021-10-27T13:32:43Z,42.805,6.029,13.3010,4.60043,2470.483,2021-10-27T15:34:07Z
2021-10-27T13:35:46Z,42.805,6.029,13.2996,4.60038,2470.46,2021-10-27T15:37:10Z
2021-10-27T13:38:49Z,42.805,6.029,13.2991,4.60020,2470.46,2021-10-27T15:40:13Z
2021-10-27T13:41:52Z,42.805,6.029,13.3000,4.60024,2470.483,2021-10-27T15:43:16Z
2021-10-27T13:44:55Z,42.805,6.029,13.3000,4.60026,2470.437,2021-10-27T15:46:20Z
2021-10-27T13:47:58Z,42.805,6.029,13.3000,4.60021,2470.483,2021-10-27T15:49:23Z
2021-10-27T13:51:01Z,42.805,6.029,13.2998,4.60044,2470.437,2021-10-27T15:52:26Z
2021-10-27T13:54:05Z,42.805,6.029,13.3004,4.60038,2470.483,2021-10-27T15:55:29Z
2021-10-27T13:57:08Z,42.805,6.029,13.3000,4.60051,2470.45,2021-10-27T15:58:32Z
2021-10-27T14:00:11Z,42.805,6.029,13.3008,4.60031,2470.474,2021-10-27T16:01:35Z
2021-10-27T14:03:14Z,42.805,6.029,13.3005,4.60032,2470.474,2021-10-27T16:04:38Z
2021-10-27T14:06:17Z,42.805,6.029,13.3009,4.60052,2470.474,2021-10-27T16:07:41Z
2021-10-27T14:09:20Z,42.805,6.029,13.2998,4.60051,2470.437,2021-10-27T16:10:45Z
2021-10-27T14:12:23Z,42.805,6.029,13.3010,4.60043,2470.46,2021-10-27T16:13:48Z
2021-10-27T14:15:26Z,42.805,6.029,13.3014,4.60037,2470.45,2021-10-27T16:16:51Z
2021-10-27T14:18:30Z,42.805,6.029,13.3006,4.60054,2470.474,2021-10-27T16:19:54Z
2021-10-27T14:21:33Z,42.805,6.029,13.3011,4.60039,2470.46,2021-10-27T16:22:57Z
2021-10-27T14:24:36Z,42.805,6.029,13.2998,4.60050,2470.46,2021-10-27T16:26:00Z
2021-10-27T14:27:39Z,42.805,6.029,13.3009,4.60046,2470.46,2021-10-27T16:29:03Z
2021-10-27T14:30:42Z,42.805,6.029,13.3004,4.60021,2470.437,2021-10-27T16:32:06Z
2021-10-27T14:33:45Z,42.805,6.029,13.3000,4.60045,2470.474,2021-10-27T16:35:10Z
2021-10-27T14:36:48Z,42.805,6.029,13.3005,4.60049,2470.437,2021-10-27T16:38:13Z
2021-10-27T14:39:51Z,42.805,6.029,13.3011,4.60046,2470.474,2021-10-27T16:41:16Z
2021-10-27T14:42:55Z,42.805,6.029,13.3018,4.60047,2470.437,2021-10-27T16:44:19Z
2021-10-27T14:45:58Z,42.805,6.029,13.3019,4.60051,2470.45,2021-10-27T16:47:22Z
2021-10-27T14:49:01Z,42.805,6.029,13.3004,4.60055,2470.437,2021-10-27T16:50:25Z
2021-10-27T14:52:04Z,42.805,6.029,13.3012,4.60057,2470.46,2021-10-27T16:53:28Z
2021-10-27T14:55:07Z,42.805,6.029,13.3011,4.60041,2470.46,2021-10-27T16:56:32Z
2021-10-27T14:58:10Z,42.805,6.029,13.3008,4.60042,2470.46,2021-10-27T16:59:35Z
2021-10-27T15:01:13Z,42.805,6.029,13.3010,4.60057,2470.474,2021-10-27T17:02:38Z